Location: Waco, TX
(31.5480°N, 97.1670°W)
Time: 01:21:34
(UTC-05:00)

ISS - Pass Details

Date: 21 May 2018
Orbit: 402 x 407 km, 51.6° (Epoch: 26 May)

Event Time Altitude Azimuth Distance (km) Brightness Sun altitude
Rises 04:43:58 0° 328° (NNW) 2,314 0.1 -19.7°
Reaches altitude 10° 04:46:24 10° 346° (NNW) 1,453 -0.7 -19.3°
Maximum altitude 04:48:56 21° 37° (NE) 974 -1.0 -18.9°
Drops below altitude 10° 04:51:28 10° 89° (E) 1,449 -0.3 -18.5°
Sets 04:53:53 0° 106° (ESE) 2,306 0.5 -18.1°
